[[{"header":{"parameterUnit":"m.s-1","parameterCategory":1,"la1":30.2991,"la2":30.254,"lo1":-89.0895,"lo2":-89.0444,"dy":0.0017,"dx":0.0017,"nx":28,"ny":28,"refTime":"2024-10-13T21:00:00:Z","depth":0,"parameterNumber":2,"parameterNumberName":"U-component_of_WINDS"},"data":[0,0,0,0,0,0,0,0,0,0,0,0,0,0,0,0,0,0,0,0,0,0,0,0,0,0,0,0,0,0,0,0,0,0,0,0,0,0,0,0,0,0,0,0,0,0,0,0,0,0,0,0,0,0,0,0,0,0,0.4086,0.4086,0,0.401,0.4009,0.4008,0.3975,0.3975,0.3975,0.3975,0.3894,0.3892,0.3889,0,0,0,0,0,0,0,0,0,0,0,0,0,0.4205,0.4203,0.4087,0.4086,0.4085,0.401,0.4009,0.4008,0.3975,0.3975,0.3975,0.3975,0.3895,0.3892,0.3889,0,0,0,0,0,0,0,0,0,0,0,0,0,0.4143,0.4202,0.4087,0.4059,0.4056,0.401,0.4009,0.4007,0.3975,0.3975,0.3975,0.3975,0.3895,0.3892,0.3889,0.3863,0,0,0.3878,0.3877,0,0,0,0,0,0,0,0,0.4147,0.4139,0.4064,0.4061,0.4057,0.4002,0.402,0.3959,0.3975,0.4005,0.3975,0.3975,0.3929,0.3923,0.3908,0.386,0.3856,0.3878,0.3876,0.3874,0.3873,0,0,0,0,0,0,0,0.4151,0.4142,0.4056,0.4063,0.4059,0.4051,0.4042,0.4009,0.3967,0.4003,0.4,0.3992,0.3928,0.3912,0.3906,0.3855,0.3878,0.3875,0.3873,0.3871,0.3785,0.3785,0,0,0,0,0,0,0.416,0.4146,0.4058,0.4054,0.4104,0.4048,0.4039,0.402,0.3967,0.396,0.3992,0.399,0.3917,0.391,0.3903,0.3872,0.3874,0.3871,0.3869,0.3785,0.3785,0.3785,0,0,0,0,0,0,0.4163,0.4153,0.4062,0.4099,0.4087,0.4046,0.4025,0.4018,0.4002,0.3959,0.3951,0.3983,0.3917,0.3908,0.3874,0.3869,0.387,0.3866,0.3785,0.3785,0.3785,0.3808,0,0,0,0,0,0,0.4166,0.4154,0.4143,0.4099,0.4085,0.4034,0.4024,0.4016,0.3996,0.3994,0.3949,0.3942,0.3917,0.388,0.3871,0.3864,0.3864,0.3786,0.3785,0.3785,0.3808,0.3809,0.381,0,0,0,0,0,0.4171,0.4152,0.4143,0.4133,0.4071,0.4034,0.4026,0.3998,0.3996,0.3986,0.3959,0.3943,0.3871,0.3877,0.3866,0.3858,0.3786,0.3785,0.3785,0.3808,0.3809,0.381,0,0,0,0,0,0,0.4195,0.4145,0.4135,0.4102,0.4073,0.4028,0.4014,0.4,0.397,0.3969,0.3935,0.3926,0.3895,0.3873,0.3881,0.3833,0.3827,0.3825,0.3848,0.3849,0.385,0.3856,0.3861,0,0,0,0,0,0.4197,0.4171,0.4129,0.4103,0.409,0.4055,0.4037,0.4019,0.3987,0.3974,0.3944,0.3913,0.3884,0.3865,0.3835,0.3805,0.3796,0.3795,0.3796,0.3797,0.3795,0.3779,0.3779,0.3783,0.3783,0.3783,0,0,0.4199,0.4169,0.4155,0.4108,0.4083,0.4057,0.4044,0.4017,0.3997,0.3969,0.3937,0.3914,0.3878,0.3846,0.3831,0.3827,0.3792,0.3796,0.3797,0.3794,0.3779,0.3778,0.3778,0.3782,0.3782,0.3782,0,0,0.4192,0.4166,0.4143,0.4119,0.4083,0.406,0.4055,0.4014,0.3998,0.3965,0.3945,0.3921,0.387,0.3846,0.3827,0.3814,0.3799,0.3805,0.381,0.3795,0.3795,0.3795,0.3791,0.379,0.3804,0.3804,0.3804,0,0.4199,0.416,0.4133,0.4107,0.4088,0.4064,0.4041,0.4019,0.3974,0.3962,0.3958,0.3897,0.387,0.3834,0.3831,0.3816,0.381,0.381,0.3797,0.3797,0.3796,0.3792,0.3791,0.3805,0.3805,0.3805,0.3804,0,0.4172,0.4146,0.4132,0.4091,0.407,0.4046,0.4016,0.3998,0.3983,0.3961,0.3929,0.3897,0.3862,0.3852,0.3835,0.3814,0.3813,0.3804,0.3798,0.3797,0.3793,0.3792,0.3806,0.3806,0.3806,0.3805,0,0,0.4175,0.4123,0.4118,0.4101,0.406,0.4039,0.4015,0.3982,0.3968,0.3939,0.3918,0.3878,0.387,0.3849,0.383,0.3817,0.3811,0.381,0.3809,0.3812,0.3788,0.3795,0.3794,0.3801,0.3801,0.3801,0.3791,0,0.4163,0.4119,0.4096,0.4062,0.4038,0.4016,0.3995,0.3969,0.3948,0.3925,0.3902,0.3875,0.3866,0.3853,0.384,0.3815,0.3806,0.3815,0.3782,0.3782,0.3793,0.3792,0.3799,0.3791,0.379,0.3789,0.3789,0,0.4141,0.4115,0.408,0.4045,0.4034,0.4015,0.3985,0.3963,0.3933,0.3919,0.3897,0.3879,0.3853,0.385,0.3815,0.3822,0.3808,0.3794,0.3793,0.3788,0.3785,0.3788,0.3788,0.3787,0.3786,0.3786,0.3787,0,0.4149,0.4105,0.4078,0.4064,0.4022,0.401,0.3992,0.3962,0.3945,0.3918,0.3907,0.3877,0.386,0.3838,0.3813,0.3812,0.3781,0.3775,0.3769,0.377,0.3763,0.3764,0.3761,0.3753,0.3753,0.3754,0.3754,0,0.4138,0.4117,0.4082,0.4065,0.4042,0.4016,0.3994,0.3974,0.3949,0.3928,0.3907,0.3889,0.3857,0.3834,0.3814,0.379,0.3782,0.3771,0.3766,0.3773,0.3774,0.3763,0.3763,0.3753,0.3753,0.3753,0.3753,0,0.4142,0.4117,0.4088,0.4052,0.4042,0.4027,0.3996,0.398,0.396,0.3935,0.3928,0.3896,0.3869,0.3842,0.3805,0.3792,0.3768,0.376,0.3778,0.3775,0.3772,0.3773,0.3762,0.3759,0.3753,0.3753,0.3753,0,0.4137,0.4121,0.4084,0.407,0.4053,0.403,0.4013,0.3987,0.397,0.3937,0.3925,0.3897,0.3873,0.3832,0.3805,0.3777,0.377,0.3768,0.3765,0.3774,0.3771,0.3773,0.3772,0.3769,0.3769,0.3769,0.3769,0,0.413,0.412,0.4096,0.407,0.4051,0.4028,0.4004,0.3994,0.3964,0.3946,0.3919,0.3901,0.3865,0.3838,0.3808,0.3789,0.3775,0.3771,0.3768,0.3775,0.3787,0.3782,0.3782,0.3771,0.3771,0.377,0.377,0.377,0.413,0.4116,0.4089,0.4064,0.4045,0.4024,0.4008,0.3987,0.3965,0.3934,0.392,0.3894,0.3867,0.3825,0.3807,0.3786,0.3782,0.3778,0.3777,0.3776,0.3779,0.379,0.378,0.378,0.378,0.378,0.378,0,0.4123,0.4106,0.4084,0.4053,0.4034,0.4024,0.3998,0.3983,0.396,0.3937,0.3915,0.3885,0.386,0.3832,0.3805,0.3794,0.3787,0.3788,0.3788,0.3785,0.3783,0.3789,0.3794,0.3794,0.3794,0.3794,0.3794,0.3794,0.4118,0.4094,0.4081,0.4048,0.403,0.4005,0.3992,0.3973,0.3954,0.3923,0.3902,0.3885,0.386,0.3832,0.3808,0.3801,0.3792,0.3795,0.3786,0.3785,0.3784,0.3783,0.3788,0.3794,0.3794,0.3789,0.3789,0.3789]},{"header":{"parameterUnit":"m.s-1","parameterCategory":1,"la1":30.2991,"la2":30.254,"lo1":-89.0895,"lo2":-89.0444,"dy":0.0017,"dx":0.0017,"nx":28,"ny":28,"refTime":"2024-10-13T21:00:00:Z","depth":0,"parameterNumber":3,"parameterNumberName":"V-component_of_WINDS"},"data":[0,0,0,0,0,0,0,0,0,0,0,0,0,0,0,0,0,0,0,0,0,0,0,0,0,0,0,0,0,0,0,0,0,0,0,0,0,0,0,0,0,0,0,0,0,0,0,0,0,0,0,0,0,0,0,0,0,0,-0.0654,-0.0655,0,-0.0723,-0.0724,-0.0725,-0.0721,-0.072,-0.0719,-0.0718,-0.079,-0.0793,-0.0795,0,0,0,0,0,0,0,0,0,0,0,0,0,-0.052,-0.0523,-0.0654,-0.0655,-0.0656,-0.0723,-0.0724,-0.0725,-0.0721,-0.072,-0.0719,-0.0718,-0.0789,-0.0792,-0.0796,0,0,0,0,0,0,0,0,0,0,0,0,0,-0.0583,-0.0524,-0.0654,-0.0662,-0.0664,-0.0723,-0.0724,-0.0725,-0.0722,-0.072,-0.0719,-0.0717,-0.0788,-0.0792,-0.0796,-0.0852,0,0,-0.0809,-0.0811,0,0,0,0,0,0,0,0,-0.0579,-0.0588,-0.066,-0.0662,-0.0664,-0.0712,-0.0703,-0.0768,-0.0722,-0.07,-0.0718,-0.0717,-0.0765,-0.0771,-0.0787,-0.0855,-0.0858,-0.0809,-0.0812,-0.0814,-0.0815,0,0,0,0,0,0,0,-0.0575,-0.0585,-0.0682,-0.0661,-0.0663,-0.0663,-0.067,-0.0715,-0.074,-0.0702,-0.0701,-0.071,-0.0766,-0.0783,-0.0789,-0.0859,-0.0809,-0.0813,-0.0816,-0.0817,-0.0977,-0.0978,0,0,0,0,0,0,-0.0569,-0.0581,-0.0679,-0.0684,-0.0617,-0.0666,-0.0674,-0.0698,-0.0739,-0.0744,-0.0711,-0.0709,-0.0777,-0.0784,-0.0792,-0.086,-0.0814,-0.0818,-0.082,-0.0975,-0.0977,-0.0979,0,0,0,0,0,0,-0.0566,-0.0578,-0.0677,-0.0632,-0.0645,-0.067,-0.0697,-0.07,-0.0718,-0.0746,-0.0751,-0.0724,-0.0776,-0.0786,-0.0837,-0.0862,-0.082,-0.0823,-0.0973,-0.0975,-0.0978,-0.0997,0,0,0,0,0,0,-0.0562,-0.0577,-0.0598,-0.0633,-0.0647,-0.0721,-0.0698,-0.0703,-0.0725,-0.0723,-0.076,-0.0765,-0.0776,-0.0831,-0.0841,-0.0867,-0.0827,-0.0971,-0.0974,-0.0977,-0.0994,-0.1,-0.1005,0,0,0,0,0,-0.0557,-0.0601,-0.0599,-0.0611,-0.0675,-0.0722,-0.073,-0.0742,-0.0727,-0.0749,-0.0767,-0.0764,-0.0858,-0.0836,-0.0848,-0.0876,-0.0969,-0.0973,-0.0977,-0.0992,-0.0999,-0.1004,0,0,0,0,0,0,-0.0569,-0.0606,-0.0604,-0.066,-0.0688,-0.0721,-0.0749,-0.0749,-0.0782,-0.0779,-0.0792,-0.08,-0.0851,-0.0869,-0.0844,-0.0932,-0.0912,-0.0918,-0.0919,-0.0926,-0.0931,-0.0926,-0.083,0,0,0,0,0,-0.0578,-0.0613,-0.0643,-0.069,-0.0704,-0.0724,-0.0745,-0.0751,-0.0781,-0.0793,-0.0815,-0.0844,-0.088,-0.0904,-0.0939,-0.0996,-0.1004,-0.1021,-0.1026,-0.1031,-0.1036,-0.1068,-0.1076,-0.0991,-0.0991,-0.0991,0,0,-0.0597,-0.0621,-0.0643,-0.0693,-0.0715,-0.0752,-0.0734,-0.0774,-0.0801,-0.0799,-0.0849,-0.0866,-0.0899,-0.0954,-0.0979,-0.097,-0.1061,-0.1035,-0.1039,-0.1042,-0.1073,-0.1081,-0.1088,-0.0994,-0.0993,-0.0993,0,0,-0.065,-0.0672,-0.0713,-0.0736,-0.077,-0.0783,-0.0793,-0.0826,-0.0838,-0.0888,-0.0887,-0.0919,-0.0981,-0.1005,-0.1025,-0.1087,-0.1085,-0.1098,-0.1126,-0.1157,-0.1163,-0.1169,-0.1192,-0.1199,-0.1103,-0.1103,-0.1103,0,-0.067,-0.0724,-0.0735,-0.0774,-0.0796,-0.0796,-0.0838,-0.0859,-0.0903,-0.0918,-0.0907,-0.0984,-0.1007,-0.1067,-0.1082,-0.1098,-0.111,-0.1094,-0.1161,-0.1167,-0.1173,-0.1195,-0.1203,-0.1105,-0.1104,-0.1104,-0.1104,0,-0.0747,-0.0785,-0.0814,-0.0856,-0.0881,-0.0922,-0.0938,-0.0963,-0.0966,-0.0981,-0.1032,-0.1058,-0.1098,-0.1113,-0.1117,-0.1174,-0.1167,-0.1158,-0.1139,-0.1183,-0.1203,-0.1211,-0.1107,-0.1106,-0.1106,-0.1105,0,0,-0.081,-0.0857,-0.0867,-0.0886,-0.0923,-0.0953,-0.0993,-0.1032,-0.1053,-0.1083,-0.1117,-0.1169,-0.1162,-0.1184,-0.1191,-0.1218,-0.1266,-0.1206,-0.1207,-0.1217,-0.133,-0.1337,-0.1347,-0.1264,-0.1266,-0.1267,-0.1328,0,-0.0868,-0.094,-0.095,-0.1013,-0.1049,-0.1048,-0.1083,-0.111,-0.1124,-0.1156,-0.1172,-0.1209,-0.1196,-0.1209,-0.1236,-0.1254,-0.1289,-0.125,-0.1297,-0.1299,-0.1289,-0.1357,-0.1365,-0.1421,-0.1336,-0.1337,-0.1338,0,-0.0945,-0.0977,-0.1044,-0.1075,-0.1091,-0.1122,-0.1159,-0.1189,-0.1219,-0.1228,-0.1253,-0.1256,-0.1298,-0.1276,-0.1334,-0.1308,-0.1327,-0.1339,-0.1341,-0.1347,-0.1322,-0.1365,-0.1439,-0.1447,-0.1351,-0.135,-0.1349,0,-0.0985,-0.1044,-0.1092,-0.1108,-0.1147,-0.1169,-0.1186,-0.1214,-0.1237,-0.1269,-0.1284,-0.132,-0.134,-0.1368,-0.1381,-0.1363,-0.1439,-0.1417,-0.1447,-0.1447,-0.1464,-0.1463,-0.1542,-0.1476,-0.1475,-0.1475,-0.1475,0,-0.1049,-0.109,-0.1111,-0.114,-0.1186,-0.1197,-0.1242,-0.1259,-0.1284,-0.1317,-0.1318,-0.1349,-0.1364,-0.1397,-0.1407,-0.1454,-0.1463,-0.1471,-0.1474,-0.1472,-0.1471,-0.1486,-0.1482,-0.1477,-0.1477,-0.1477,-0.1476,0,-0.1102,-0.1117,-0.1169,-0.1201,-0.121,-0.1243,-0.127,-0.1298,-0.1312,-0.1354,-0.1364,-0.1386,-0.1425,-0.144,-0.1488,-0.1495,-0.1549,-0.1548,-0.1539,-0.154,-0.1569,-0.1566,-0.1661,-0.1675,-0.1598,-0.1599,-0.16,0,-0.1142,-0.1174,-0.1208,-0.123,-0.1248,-0.1283,-0.1306,-0.1318,-0.1342,-0.1378,-0.1403,-0.1441,-0.1473,-0.1535,-0.1556,-0.1592,-0.1592,-0.1623,-0.1598,-0.1595,-0.1593,-0.1592,-0.1595,-0.1628,-0.1629,-0.1629,-0.163,0,-0.1212,-0.1217,-0.125,-0.1286,-0.1313,-0.1342,-0.137,-0.1388,-0.1404,-0.1431,-0.147,-0.1495,-0.1543,-0.1582,-0.1619,-0.1637,-0.1637,-0.1637,-0.1646,-0.1645,-0.1639,-0.1643,-0.1552,-0.1635,-0.1635,-0.1635,-0.1634,-0.1634,-0.126,-0.1288,-0.1317,-0.1353,-0.1375,-0.1401,-0.143,-0.1447,-0.148,-0.152,-0.1525,-0.1568,-0.1597,-0.1647,-0.1666,-0.17,-0.1692,-0.1705,-0.1708,-0.1711,-0.1713,-0.1633,-0.1706,-0.1706,-0.1706,-0.1706,-0.1706,0,-0.133,-0.1348,-0.1382,-0.1421,-0.1449,-0.1445,-0.1476,-0.1501,-0.1538,-0.1565,-0.1596,-0.1641,-0.1679,-0.1701,-0.1739,-0.1761,-0.1762,-0.1771,-0.177,-0.1774,-0.1718,-0.1707,-0.177,-0.177,-0.177,-0.177,-0.177,-0.177,-0.137,-0.1417,-0.1426,-0.1484,-0.1503,-0.1544,-0.1562,-0.1586,-0.1608,-0.1658,-0.1689,-0.1703,-0.1729,-0.1768,-0.1802,-0.1808,-0.1822,-0.1831,-0.1837,-0.1784,-0.1778,-0.1772,-0.1761,-0.1834,-0.1834,-0.189,-0.189,-0.1891]}]]